Regional Weather Roundup
Issued by NWS

Home | Current Version | Previous Version | Text Only | Print | Product List | Glossary Off
Versions: 1 2 3 4 5 6 7 8 9 10 11 12 13 14 15 16 17 18 19 20 21 22 23 24 25 26 27 28 29 30 31 32 33 34 35 36 37 38 39 40 41 42 43 44 45 46 47 48 49 50

000
ASUS43 KDTX 181110
RWRMI
MICHIGAN HOURLY REGIONAL WEATHER ROUNDUP
NATIONAL WEATHER SERVICE DETROIT/PONTIAC MI
700 AM EDT FRI APR 18 2014

NOTE: "FAIR" INDICATES FEW OR NO CLOUDS BELOW 12,000 FEET WITH NO
SIGNIFICANT WEATHER AND/OR OBSTRUCTION TO VISIBILITY.

MIZ047>049-052>055-059>063-066>070-074>076-081>083-181200-
SOUTHEAST LOWER MICHIGAN

CITY           SKY/WX    TMP DP  RH WIND       PRES   REMARKS
ADRIAN         CLOUDY    47  38  71 NE3       30.27R
ALMA           CLOUDY    44  37  77 N5        30.27R
ANN ARBOR      CLOUDY    47  38  71 CALM      30.26R
BAD AXE        CLOUDY    42  32  67 N6        30.28R
DETROIT CITY   CLOUDY    49  38  65 CALM      30.28R
DETROIT        CLOUDY    50  38  63 CALM      30.28R
FLINT          LGT RAIN  47  43  86 CALM      30.27R FOG
GROSSE ILE     CLOUDY    45  41  87 CALM      30.26R
HILLSDALE      CLOUDY    47  40  76 CALM      30.26R
HOWELL         RAIN      45  44  95 SE3       30.25R

CITY           SKY/WX    TMP DP  RH WIND       PRES   REMARKS
JACKSON        CLOUDY    46  44  93 S3        30.26R FOG
LAMBERTVILLE   CLOUDY    45  37  76 CALM      30.28R
LANSING        CLOUDY    44  42  93 CALM      30.26R FOG
LAPEER         NOT AVBL
MASON          CLOUDY    45  44  97 CALM      30.26R FOG
MONROE         CLOUDY    45  37  76 NW3       30.26R
MT. CLEMENS    CLOUDY    42  39  87 E3        30.26R
PONTIAC        LGT RAIN  47  41  80 CALM      30.26R
PORT HOPE        N/A     41  33  73 NW5       30.26R
PORT HURON     CLOUDY    41  37  87 CALM      30.27R
TRI CITIES     CLOUDY    45  35  68 N7        30.28R
YPSILANTI      CLOUDY    53  38  56 NW3       30.27R
$$
MIZ043>046-050>051-056>058-064>065-071>073-077>080-181200-
SOUTHWEST LOWER MICHIGAN

CITY           SKY/WX    TMP DP  RH WIND       PRES   REMARKS
BATTLE CREEK   CLOUDY    45  44  97 CALM      30.26R FOG
BENTON HARBOR  MOCLDY    41  36  82 CALM      30.26R
BIG RAPIDS     MOCLDY    38  38 100 CALM      30.26R
COLDWATER      LGT RAIN  46  43  90 SE3       30.25S
HOLLAND        PTCLDY    40  36  86 CALM      30.27S
GRAND RAPIDS   CLOUDY    44  36  73 N5        30.27R
KALAMAZOO      LGT RAIN  46  43  89 CALM      30.26R FOG
MARSHALL       DRIZZLE   44  43  94 CALM      30.25R
MUSKEGON       MOCLDY    39  34  82 CALM      30.27S
$$
MIZ016>042-181200-
NORTHERN LOWER MICHIGAN

CITY           SKY/WX    TMP DP  RH WIND       PRES   REMARKS
ALPENA         CLOUDY    34  30  85 W5        30.27R
BEAVER ISLAND  CLOUDY    33  29  88 NW3       30.30R
BELLAIRE       CLOUDY    31  29  94 CALM      30.29R FOG
CADILLAC       CLOUDY    32  31  98 CALM      30.25R
CHARLEVOIX     CLOUDY    34  33  94 NW3       30.32R
FRANKFORT      PTSUNNY   35  30  83 NW3       30.31R
GAYLORD        CLOUDY    29  27  92 CALM      30.25R
GRAYLING       CLOUDY    31  31 100 W5        30.27R FOG
HARBOR SPRINGS CLOUDY    32  32  99 CALM      30.27R FOG
HOUGHTON LAKE  MOCLDY    30  30 100 S3        30.26R FOG
MANISTEE       CLOUDY    36  30  80 N5        30.30R
OSCODA         CLOUDY    38  31  76 NW6       30.26R
PELLSTON       CLOUDY    34  29  82 NW8       30.28R
TRAVERSE CITY  CLOUDY    35  31  85 NW7       30.29R
$$
MIZ007>008-015-181200-
EASTERN UPPER MICHIGAN

CITY           SKY/WX    TMP DP  RH WIND       PRES   REMARKS
KINROSS        CLOUDY    32  30  93 NW10      30.25R
MACKINAC ISLAN CLOUDY    32  31  97 W7        30.27R
NEWBERRY       CLOUDY    31  26  83 W8        30.26R
S. S. MARIE    CLOUDY    33  29  85 NW7       30.25R
$$
MIZ004>006-011>014-085-181200-
CENTRAL UPPER MICHIGAN

CITY           SKY/WX    TMP DP  RH WIND       PRES   REMARKS
MANISTIQUE     CLOUDY    32  27  80 NW6       30.29R
ESCANABA       CLOUDY    34  27  75 NW3       30.31R
MENOMINEE      CLOUDY    34  27  75 NW3       30.32R
SAWYER-GWINN   CLOUDY    28  25  86 N3        30.27R
$$
MIZ001>003-009>011-084-181200-
WESTERN UPPER MICHIGAN

CITY           SKY/WX    TMP DP  RH WIND       PRES   REMARKS
IRON MOUNTAIN  CLOUDY    32  23  69 NW7       30.28R
HOUGHTON       CLOUDY    29  25  85 NW9       30.28R
COPPER HARBOR    N/A     30  27  88 N12       30.29R
IRONWOOD       CLOUDY    19  16  86 CALM      30.29R
$$

ABBREVIATIONS USED IN REMARKS
   TC - TEMPERATURE IN CELSIUS
  WCI - WIND CHILL INDEX
   HX - HEAT INDEX
  VSB - VISIBILITY




USA.gov is the U.S. government's official web portal to all federal, state and local government web resources and services.